Find Starlink 4458

NORAD ID: 53668 Int'l Des: 2022-105 Owner: SPXS Country: US Constellation: starlink operational
LEOCIRCULARRETROGRADESSO

現在のビュー

3D地球を読み込み中...

About Starlink 4458

Starlink 4458 (NORAD 53668) is a starlink constellation satellite (v1.5) launched Aug 31, 2022 by SPXS of US. It operates in LEO, CIRCULAR, RETROGRADE, SSO orbit with a mass of 300.00 kg.

Starlink 4458について

説明を読み込み中...

次回通過

Passes for default location (London). Set your location on the main map for personalized predictions.

高度履歴

Loading altitude history...

軌道要素

1 53668U 22105W 26171.41668980 .00156427 00000-0 17807-2 0 9997
2 53668 97.6026 56.0131 0001085 83.8352 151.0063 15.61755853 5893
Epoch: Jun 20, 2026 • Age: 21 hours

現在のステータス

高度 385.5 km
速度 7.68 km/s
衛星直下点 -3.93°S, 50.36°E
打ち上げ日 Aug 31, 2022
運用期間 3.8 years
タイプ internet

技術仕様

分類 Payload
質量 300.00 kg
乾燥質量 290.00 kg
総質量 300.00 kg
長さ 0.20 m
直径 2.80 m
スパン 9.00 m
形状 Box + pan
製造者 SPXS
バスタイプ Starlink
フェーズステータス In Orbit
所有者/国 SPXS/US

Most Searched